Location: Bismarck
(46.7731°N, 100.8200°W)
Time: 03:14:37
(UTC-05:00)

ISS - Visible Passes

Search period start: 24 March 2017 00:00
Search period end: 03 April 2017 00:00
Orbit: 399 x 409 km, 51.6° (Epoch: 24 March)

Date Brightness Start Highest point End Pass type
(mag) Time Alt. Az. Time Alt. Az. Time Alt. Az.
26 Mar -1.4 21:50:35 10° SSW 21:51:06 13° SSW 21:51:06 13° SSW visible
27 Mar -2.1 20:59:06 10° S 21:01:13 16° SE 21:01:58 15° ESE visible
27 Mar -1.2 22:34:01 10° WSW 22:34:42 15° WSW 22:34:42 15° WSW visible
28 Mar -3.8 21:41:43 10° SW 21:44:55 56° SSE 21:45:17 51° ESE visible
29 Mar -3.0 20:49:38 10° SSW 20:52:35 32° SE 20:55:34 10° ENE visible
29 Mar -2.7 22:25:45 10° W 22:28:19 44° WNW 22:28:19 44° WNW visible
30 Mar -3.8 21:33:13 10° WSW 21:36:29 78° NNW 21:38:26 22° ENE visible
30 Mar -0.8 23:10:14 10° WNW 23:11:07 16° WNW 23:11:07 16° WNW visible
31 Mar -3.8 20:40:49 10° SW 20:44:03 67° SSE 20:47:18 10° ENE visible
31 Mar -2.7 22:17:34 10° W 22:20:41 38° N 22:21:04 37° N visible
01 Apr -3.0 21:24:56 10° W 21:28:06 48° NNW 21:30:53 13° ENE visible
01 Apr -1.3 23:01:59 10° WNW 23:03:33 22° NW 23:03:33 22° NW visible
02 Apr -2.4 22:09:22 10° WNW 22:12:23 33° N 22:13:15 28° NNE visible
